星链-36790(STARLINK-36790)

导读

STARLINK-36790(NORAD编号68095)是美国SpaceX公司星链(Starlink)星座中的一颗低轨通信卫星,属于Starlink V1.0平台,于2024年12月8日发射。该卫星轨道倾角43.001°,近地点约355公里,远地点约357公里,轨道周期约91.66分钟,截至2026年4月已在轨运行超过400天,目前状态正常。作为星链全球卫星互联网项目的一员,它旨在为全球提供高速低延迟互联网服务,尤其是缩小偏远地区数字鸿沟,同时也可为军事、航空等领域提供通信支持。

Basic Information
目录编号:
68095
目录名称:
STARLINK-36790
国际标识:
2026-042AC
轨道中心:
EARTH
卫星名称:
星链-36790
卫星全名:
星链-36790(STARLINK-36790)
卫星状态:
在轨 (已飞行185 天)
发射日期:
2026-03-04 UTC
国别 :
美国 (US)
星等 :
--
Orbit Information
数据来源 国际轨道数据
星历时间: 2026-09-05T05:03:47+0800
16小时前
查看轨道信息
半长轴: 6840.922km
偏心率: 0.0001053
轨道倾角: 53.160°
近地点辐角 86.100°
升交点赤经 62.574°
平近点角 274.013°
近地点: 462.064km
远地点: 463.506km
周期: 93.849分钟
每日圈数: 15.343727
Detailed Information
固有亮度:
5
最大亮度:
2.5
卫星平台:
Starlink V1.0
覆盖范围:
全球
运营商:
太空探索技术公司
运营商所在国:
美国
制造商(研发单位):
太空探索技术公司
制造商所在国:
美国
使用方式:
暂无
Satellite Introduction
Starlink 计划是 SpaceX 推出的全球卫星互联网项目,通过发射低轨道卫星,为全球尤其是偏远地区提供高速、低延迟的互联网服务。自 2019 年起,Starlink 已部署数千颗卫星,旨在缩小全球数字鸿沟,推动互联网普及。该项目还为军事、航空等行业提供通信支持,带来广泛经济效益。
2D Orbit Map
3D Orbit Map
Orbit Altitude Analysis Chart
Orbit Inclination Analysis Chart
Orbit Comprehensive Analysis Chart
View Comprehensive Chart
Conjunction Data List
Event ID Objects TCA Miss Dist (km) Collision Risk Probability Collision Risk Index (CRI) Action
CDM_260907-202806-608806-809521
2026-09-07T
20:28:40+0000
0.327 km
远距离
3.21372E-4 高风险 0.85
CDM_260907-071106-608806-809521
2026-09-07T
07:11:28+0000
0.747 km
远距离
4.304281E-5 中风险 0.68
CDM_260907-084506-608806-809521
2026-09-07T
08:45:15+0000
1.780 km
极远距离
2.474757E-6 低风险 0.43
CDM_260906-132204-944206-809521
2026-09-06T
13:22:51+0000
1.778 km
极远距离
1.960267E-6 低风险 0.41
CDM_260907-220206-608806-809521
2026-09-07T
22:02:28+0000
2.075 km
极远距离
1.670458E-6 低风险 0.39
CDM_260829-160904-302306-809521
2026-08-29T
16:09:15+0000
2.433 km
极远距离
1.634932E-6 低风险 0.39
CDM_260901-152306-619906-809521
2026-09-01T
15:23:22+0000
2.350 km
极远距离
1.267548E-6 低风险 0.37
CDM_260907-053706-608806-809521
2026-09-07T
05:37:40+0000
2.641 km
极远距离
1.054534E-6 低风险 0.35
CDM_260907-185406-608806-809521
2026-09-07T
18:54:53+0000
2.687 km
极远距离
1.02656E-6 低风险 0.35
CDM_260903-211105-920906-809521
2026-09-03T
21:11:16+0000
2.724 km
极远距离
5.79459E-7 极低风险 0.3